Location: ???????
(54.6339°N, 39.4245°E)
Time: 14:34:05
(UTC+00:00)

Okean 1 - Pass Details

Date: 19 May 2025
Orbit: 478 x 498 km, 82.5° (Epoch: 20 June)

Event Time Altitude Azimuth Distance (km) Brightness Sun altitude
Exits shadow 18:34:57 10° 144° (SE) 1,682 5.1 -7.6°
Maximum altitude 18:37:57 24° 89° (E) 1,055 4.4 -7.9°
Drops below altitude 10° 18:40:57 10° 35° (NE) 1,685 6.0 -8.2°
Sets 18:43:19 0° 21° (NNE) 2,567 7.2 -8.4°
